Regional Weather Roundup
Issued by NWS

Home | Current Version | Previous Version | Graphics & Text | Print | Product List | Glossary On
Versions: 1 2 3 4 5 6 7 8 9 10 11 12 13 14 15 16 17 18 19 20 21 22 23 24 25 26 27 28 29 30 31 32 33 34 35 36 37 38 39 40 41 42 43 44 45 46 47 48 49 50
211
ASUS45 KSLC 162210
RWRUT

UTAH REGIONAL WEATHER ROUNDUP
NATIONAL WEATHER SERVICE SALT LAKE CITY UT
400 PM MDT MON OCT 16 2017

UTZ001>011-023>025-162300-

NORTHERN UTAH

CITY           SKY/WX    TMP DP  RH WIND       PRES   REMARKS
BRIGHAM CITY   SUNNY     62  13  15 SW5       30.36S
DUGWAY         MOSUNNY   62  14  15 NW5       30.34
HILL AFB       SUNNY     61  23  23 NW3       30.36S
LOGAN          SUNNY     66  20  17 NE6       30.34F
OGDEN          SUNNY     62  28  27 N5        30.35F
SALT LAKE CITY PTSUNNY   64  28  25 NW7       30.35F
TOOELE VALLEY  SUNNY     57  28  33 N6        30.36F
WENDOVER       NOT AVBL
WEST JORDAN    SUNNY     60  33  36 N3        30.36S

$$

UTZ011>015-024>027-162300-

CENTRAL/NORTHEAST UTAH

CITY           SKY/WX    TMP DP  RH WIND       PRES   REMARKS
PROVO AIRPORT  SUNNY     59  21  23 W5        30.34F
MOAB/CANYONLAN SUNNY     66   7  10 N3        30.33F
DELTA          SUNNY     64  14  14 CALM      30.34F
PRICE          SUNNY     62  11  13 VRB3      30.38F
ROOSEVELT      SUNNY     61  14  16 CALM      30.36F
VERNAL         SUNNY     62  13  14 VRB5      30.35F

$$

UTZ013>016-019>022-027-162300-

SOUTHERN UTAH

CITY           SKY/WX    TMP DP  RH WIND       PRES   REMARKS
BRYCE CANYON   SUNNY     66   2   8 SE10      30.44F
CEDAR CITY     SUNNY     76   8   7 N5        30.32F
MILFORD        SUNNY     70  10  10 N9        30.32F
ST GEORGE      CLEAR     77   7   7 S3        30.20F
HANKSVILLE     SUNNY     66  10  11 N3        30.36F
BLANDING         N/A     68   9  10 SW7       30.44F

$$

REGIONAL REPORTS     COLORADO/ARIZONA

CITY           SKY/WX    TMP DP  RH WIND       PRES   REMARKS
CRAIG, CO      SUNNY     68  -6   5 W16       30.35F
GRAND JUNCTION SUNNY     66  10  11 W14       30.34F
RIFLE, CO      SUNNY     70   3   7 W18       30.33F
MONTROSE, CO   SUNNY     67  11  11 NW12      30.36F
CORTEZ, CO     SUNNY     71   8   8 SW7       30.38F
COLORADO CITY    N/A     82  12   7 SW5       30.31F
PAGE, AZ       SUNNY     69  10  10 N6        30.31F
GRAND CANYON   SUNNY     74   4   6 VRB7      30.40S
KINGMAN, AZ    MOSUNNY   84  18   8 N8        30.21F
FLAGSTAFF, AZ  SUNNY     72  15  11 VRB6      30.40F

$$

REGIONAL REPORTS    NEVADA/IDAHO/WYOMING

CITY           SKY/WX    TMP DP  RH WIND       PRES   REMARKS
LAS VEGAS, NV  MOSUNNY   82   9   6 CALM      30.16F
ELY, NY        SUNNY     75  18  11 N10       30.35F
ELKO, NV       SUNNY     71   5   7 S5        30.32F
POCATELLO, ID  SUNNY     61  26  26 NW7       30.33F
BURLEY, ID     SUNNY     64  20  18 NW3       30.30F
FORT BRIDGER,    N/A     68   4   8 W18       30.41S
EVANSTON, WY   SUNNY     64   6  10 SW15G26   30.40S
ROCK SPRINGS,  SUNNY     64  -2   7 W18       30.36S
KEMMERER, WY   SUNNY     61   9  12 W14G22    30.40S

$$




USA.gov is the U.S. government's official web portal to all federal, state and local government web resources and services.